Time,TemperatureF,DewpointF,PressureIn,WindDirection,WindDirectionDegrees,WindSpeedMPH,WindSpeedGustMPH,Humidity,HourlyPrecipIn,Conditions,Clouds,dailyrainin,SoftwareType,DateUTC
2013-01-26 00:02:00,50.0,48.0,30.07,East,98,0.0,0.0,92,0.01,,,0.14,,2013-01-26 08:02:00,
2013-01-26 00:11:00,50.0,48.0,30.07,East,98,0.0,0.0,92,0.01,,,0.14,,2013-01-26 08:11:00,
2013-01-26 00:21:00,50.0,48.0,30.07,East,98,0.0,0.0,92,0.01,,,0.14,,2013-01-26 08:21:00,
2013-01-26 00:31:00,50.0,48.0,30.07,East,98,0.0,0.0,92,0.01,,,0.14,,2013-01-26 08:31:00,
2013-01-26 00:41:00,50.0,48.0,30.07,East,98,0.0,0.0,92,0.01,,,0.14,,2013-01-26 08:41:00,
2013-01-26 00:53:00,50.0,48.0,30.06,East,98,0.0,0.0,92,0.00,,,0.14,,2013-01-26 08:53:00,
2013-01-26 01:01:00,50.0,48.0,30.06,East,98,0.0,0.0,92,0.01,,,0.15,,2013-01-26 09:01:00,
2013-01-26 01:11:00,50.0,48.0,30.06,East,98,0.0,0.0,92,0.01,,,0.15,,2013-01-26 09:11:00,
2013-01-26 01:22:00,50.0,48.0,30.05,East,98,0.0,0.0,92,0.02,,,0.16,,2013-01-26 09:22:00,
2013-01-26 01:31:00,50.0,48.0,30.05,East,98,0.0,0.0,92,0.02,,,0.16,,2013-01-26 09:31:00,
2013-01-26 01:42:00,50.0,48.0,30.05,East,98,0.0,0.0,92,0.02,,,0.16,,2013-01-26 09:42:00,
2013-01-26 01:52:00,50.0,48.0,30.03,East,98,0.0,0.0,92,0.03,,,0.17,,2013-01-26 09:52:00,
2013-01-26 02:01:00,50.0,48.0,30.03,East,98,0.0,0.0,92,0.03,,,0.17,,2013-01-26 10:01:00,
2013-01-26 02:11:00,50.0,48.0,30.03,East,98,0.0,0.0,92,0.03,,,0.17,,2013-01-26 10:11:00,
2013-01-26 02:21:00,50.0,48.0,30.03,East,98,0.0,0.0,92,0.01,,,0.17,,2013-01-26 10:21:00,
2013-01-26 02:31:00,50.0,48.0,30.03,East,98,0.0,0.0,92,0.01,,,0.17,,2013-01-26 10:31:00,
2013-01-26 02:42:00,50.0,48.0,30.03,East,98,0.0,0.0,92,0.01,,,0.17,,2013-01-26 10:42:00,
2013-01-26 02:52:00,50.0,48.0,30.01,East,98,0.0,0.0,92,0.00,,,0.17,,2013-01-26 10:52:00,
2013-01-26 03:01:00,50.0,48.0,30.01,East,98,0.0,0.0,92,0.00,,,0.17,,2013-01-26 11:01:00,
2013-01-26 03:12:00,50.0,48.0,30.01,East,98,0.0,0.0,92,0.00,,,0.17,,2013-01-26 11:12:00,
2013-01-26 03:21:00,50.0,48.0,30.01,East,98,0.0,0.0,92,0.00,,,0.17,,2013-01-26 11:21:00,
2013-01-26 03:31:00,50.0,48.0,30.01,East,98,0.0,0.0,92,0.00,,,0.17,,2013-01-26 11:31:00,
2013-01-26 03:42:00,50.0,48.0,30.01,East,98,0.0,0.0,92,0.00,,,0.17,,2013-01-26 11:42:00,
2013-01-26 03:52:00,50.0,48.0,30.01,East,98,0.0,0.0,92,0.00,,,0.17,,2013-01-26 11:52:00,
2013-01-26 04:01:00,50.0,48.0,30.01,East,98,0.0,0.0,92,0.00,,,0.17,,2013-01-26 12:01:00,
2013-01-26 04:12:00,50.0,48.0,30.01,East,98,0.0,0.0,92,0.00,,,0.17,,2013-01-26 12:12:00,
2013-01-26 04:22:00,50.0,48.0,30.00,East,98,0.0,0.0,92,0.00,,,0.17,,2013-01-26 12:22:00,
2013-01-26 04:32:00,50.0,48.0,30.00,East,98,0.0,0.0,92,0.00,,,0.17,,2013-01-26 12:32:00,
2013-01-26 04:42:00,50.0,48.0,30.00,East,98,0.0,0.0,92,0.00,,,0.17,,2013-01-26 12:42:00,
2013-01-26 04:52:00,50.0,48.0,29.99,East,98,0.0,0.0,92,0.01,,,0.18,,2013-01-26 12:52:00,
2013-01-26 05:02:00,49.0,47.0,29.99,East,98,0.0,0.0,92,0.01,,,0.18,,2013-01-26 13:02:00,
2013-01-26 05:12:00,49.0,47.0,29.99,East,98,0.0,0.0,92,0.01,,,0.18,,2013-01-26 13:12:00,
2013-01-26 05:22:00,49.0,47.0,29.98,East,98,0.0,0.0,92,0.01,,,0.18,,2013-01-26 13:22:00,
2013-01-26 05:32:00,49.0,47.0,29.98,East,98,0.0,0.0,92,0.01,,,0.18,,2013-01-26 13:32:00,
2013-01-26 05:42:00,49.0,47.0,29.98,East,98,0.0,0.0,92,0.01,,,0.18,,2013-01-26 13:42:00,
2013-01-26 05:52:00,49.0,47.0,29.95,East,98,0.0,0.0,92,0.00,,,0.18,,2013-01-26 13:52:00,
2013-01-26 06:02:00,49.0,47.0,29.95,NW,326,0.0,0.0,92,0.00,,,0.18,,2013-01-26 14:02:00,
2013-01-26 06:11:00,49.0,47.0,29.95,NW,326,0.0,0.0,92,0.00,,,0.18,,2013-01-26 14:11:00,
2013-01-26 06:21:00,47.0,45.0,29.96,WNW,290,0.0,0.0,92,0.00,,,0.18,,2013-01-26 14:21:00,
2013-01-26 06:31:00,47.0,45.0,29.96,WNW,288,0.0,0.0,92,0.00,,,0.18,,2013-01-26 14:31:00,
2013-01-26 06:42:00,47.0,45.0,29.96,WNW,288,0.0,0.0,92,0.00,,,0.18,,2013-01-26 14:42:00,
2013-01-26 06:53:00,47.0,45.0,29.96,WNW,288,0.0,0.0,93,0.00,,,0.18,,2013-01-26 14:53:00,
2013-01-26 07:02:00,47.0,45.0,29.96,WNW,289,0.0,0.0,93,0.00,,,0.18,,2013-01-26 15:02:00,
2013-01-26 07:12:00,47.0,45.0,29.96,WNW,289,0.0,0.0,93,0.00,,,0.18,,2013-01-26 15:12:00,
2013-01-26 07:21:00,47.0,45.0,29.96,WNW,290,0.0,0.0,93,0.00,,,0.18,,2013-01-26 15:21:00,
2013-01-26 07:32:00,47.0,45.0,29.96,WNW,290,0.0,0.0,93,0.00,,,0.18,,2013-01-26 15:32:00,
2013-01-26 07:42:00,47.0,45.0,29.96,WNW,290,0.0,0.0,93,0.00,,,0.18,,2013-01-26 15:42:00,
2013-01-26 07:52:00,47.0,45.0,29.96,WNW,290,0.0,0.0,93,0.00,,,0.18,,2013-01-26 15:52:00,
2013-01-26 08:01:00,48.0,46.0,29.96,WNW,290,0.0,0.0,93,0.00,,,0.18,,2013-01-26 16:01:00,
2013-01-26 08:11:00,48.0,46.0,29.96,WNW,290,0.0,0.0,93,0.00,,,0.18,,2013-01-26 16:11:00,
2013-01-26 08:21:00,48.0,46.0,29.96,WNW,291,0.0,0.0,93,0.00,,,0.18,,2013-01-26 16:21:00,
2013-01-26 08:31:00,49.0,47.0,29.96,WNW,291,0.0,0.0,93,0.00,,,0.18,,2013-01-26 16:31:00,
2013-01-26 08:42:00,49.0,47.0,29.96,WNW,291,0.0,0.0,93,0.00,,,0.18,,2013-01-26 16:42:00,
2013-01-26 08:53:00,49.0,47.0,29.96,WNW,291,0.0,0.0,94,0.01,,,0.19,,2013-01-26 16:53:00,
2013-01-26 09:02:00,49.0,47.0,29.96,WNW,291,0.0,0.0,94,0.01,,,0.19,,2013-01-26 17:02:00,
2013-01-26 09:12:00,49.0,47.0,29.96,WNW,291,0.0,0.0,94,0.01,,,0.19,,2013-01-26 17:12:00,
2013-01-26 09:21:00,49.0,47.0,29.97,WNW,291,0.0,0.0,94,0.01,,,0.19,,2013-01-26 17:21:00,
2013-01-26 09:32:00,50.0,48.0,29.97,WNW,291,0.0,0.0,94,0.01,,,0.19,,2013-01-26 17:32:00,
2013-01-26 09:41:00,50.0,48.0,29.97,WNW,291,0.0,0.0,94,0.01,,,0.19,,2013-01-26 17:41:00,
2013-01-26 09:52:00,50.0,48.0,29.97,WNW,291,0.0,0.0,94,0.00,,,0.19,,2013-01-26 17:52:00,
2013-01-26 10:02:00,50.0,48.0,29.97,WNW,291,0.0,0.0,94,-99.99,,,-99.99,,2013-01-26 18:02:00,
2013-01-26 10:11:00,50.0,48.0,29.97,WNW,291,0.0,0.0,94,-99.99,,,-99.99,,2013-01-26 18:11:00,
2013-01-26 10:22:00,51.0,49.0,30.00,WNW,290,0.0,0.0,94,-99.99,,,-99.99,,2013-01-26 18:22:00,
2013-01-26 10:32:00,51.0,49.0,30.00,SE,144,0.0,0.0,94,-99.99,,,-99.99,,2013-01-26 18:32:00,
2013-01-26 10:41:00,51.0,49.0,30.00,SE,144,0.0,0.0,94,-99.99,,,-99.99,,2013-01-26 18:41:00,
2013-01-26 10:52:00,52.0,50.0,30.00,SE,144,0.0,0.0,94,-99.99,,,-99.99,,2013-01-26 18:52:00,
2013-01-26 11:02:00,52.0,50.0,30.00,SE,145,0.0,0.0,94,0.00,,,-99.99,,2013-01-26 19:02:00,
2013-01-26 11:11:00,52.0,50.0,30.00,SE,145,0.0,0.0,94,0.00,,,-99.99,,2013-01-26 19:11:00,
2013-01-26 11:22:00,54.0,52.0,29.98,SE,146,0.0,0.0,94,0.00,,,-99.99,,2013-01-26 19:22:00,
2013-01-26 11:32:00,54.0,52.0,29.98,SE,141,0.0,0.0,93,0.00,,,-99.99,,2013-01-26 19:32:00,
2013-01-26 11:42:00,54.0,52.0,29.98,SE,141,0.0,0.0,93,0.00,,,-99.99,,2013-01-26 19:42:00,
2013-01-26 11:52:00,54.0,52.0,29.96,SE,140,0.0,0.0,92,0.00,,,-99.99,,2013-01-26 19:52:00,
2013-01-26 12:02:00,55.0,52.0,29.96,SE,141,0.0,0.0,90,0.00,,,-99.99,,2013-01-26 20:02:00,
2013-01-26 12:11:00,55.0,52.0,29.96,SE,141,0.0,0.0,90,0.00,,,-99.99,,2013-01-26 20:11:00,
2013-01-26 12:21:00,56.0,51.0,29.94,SSE,153,1.0,1.0,82,0.00,,,-99.99,,2013-01-26 20:21:00,
2013-01-26 12:32:00,57.0,50.0,29.94,SSE,153,1.0,1.0,78,0.00,,,-99.99,,2013-01-26 20:32:00,
2013-01-26 12:41:00,57.0,50.0,29.94,SSE,153,1.0,1.0,78,0.00,,,-99.99,,2013-01-26 20:41:00,
2013-01-26 12:52:00,58.0,48.0,29.92,NNW,339,1.0,4.0,70,0.00,,,-99.99,,2013-01-26 20:52:00,
2013-01-26 13:02:00,59.0,48.0,29.92,NNW,341,2.0,4.0,67,0.00,,,-99.99,,2013-01-26 21:02:00,
2013-01-26 13:11:00,59.0,48.0,29.92,NNW,341,2.0,4.0,67,0.00,,,-99.99,,2013-01-26 21:11:00,
2013-01-26 13:22:00,60.0,48.0,29.89,NNE,18,4.0,5.0,65,0.00,,,-99.99,,2013-01-26 21:22:00,
2013-01-26 13:31:00,60.0,49.0,29.89,NE,46,4.0,6.0,67,0.00,,,-99.99,,2013-01-26 21:31:00,
2013-01-26 13:42:00,60.0,49.0,29.89,NE,46,4.0,6.0,67,0.00,,,-99.99,,2013-01-26 21:42:00,
2013-01-26 13:52:00,59.0,48.0,29.88,NE,52,3.0,5.0,67,0.00,,,-99.99,,2013-01-26 21:52:00,
2013-01-26 14:01:00,59.0,48.0,29.88,ENE,68,3.0,6.0,68,0.00,,,-99.99,,2013-01-26 22:01:00,
2013-01-26 14:11:00,59.0,48.0,29.88,ENE,68,3.0,6.0,68,0.00,,,-99.99,,2013-01-26 22:11:00,
2013-01-26 14:21:00,59.0,48.0,29.88,NNE,20,2.0,5.0,67,0.00,,,-99.99,,2013-01-26 22:21:00,
2013-01-26 14:31:00,60.0,49.0,29.88,NE,45,3.0,5.0,68,0.00,,,-99.99,,2013-01-26 22:31:00,
2013-01-26 14:41:00,60.0,49.0,29.88,NE,45,3.0,5.0,68,0.00,,,-99.99,,2013-01-26 22:41:00,
2013-01-26 14:52:00,60.0,49.0,29.87,NE,51,3.0,5.0,67,0.00,,,-99.99,,2013-01-26 22:52:00,
2013-01-26 15:01:00,60.0,49.0,29.87,ENE,68,4.0,5.0,67,0.00,,,-99.99,,2013-01-26 23:01:00,
2013-01-26 15:11:00,60.0,49.0,29.87,ENE,68,4.0,5.0,67,0.00,,,-99.99,,2013-01-26 23:11:00,
2013-01-26 15:21:00,60.0,49.0,29.86,NE,56,4.0,6.0,66,0.00,,,-99.99,,2013-01-26 23:21:00,
2013-01-26 15:32:00,61.0,48.0,29.86,ENE,74,4.0,9.0,62,0.00,,,-99.99,,2013-01-26 23:32:00,
2013-01-26 15:41:00,61.0,48.0,29.86,ENE,74,4.0,9.0,62,0.00,,,-99.99,,2013-01-26 23:41:00,
2013-01-26 15:52:00,63.0,47.0,29.85,North,358,5.0,7.0,56,0.00,,,-99.99,,2013-01-26 23:52:00,
2013-01-26 16:01:00,63.0,47.0,29.85,North,358,2.0,6.0,56,0.00,,,-99.99,,2013-01-27 00:01:00,
2013-01-26 16:11:00,63.0,47.0,29.85,North,358,2.0,6.0,56,0.00,,,-99.99,,2013-01-27 00:11:00,
2013-01-26 16:21:00,63.0,47.0,29.84,NNW,336,0.0,4.0,55,0.00,,,-99.99,,2013-01-27 00:21:00,
2013-01-26 16:31:00,63.0,47.0,29.84,NW,326,2.0,4.0,56,0.00,,,-99.99,,2013-01-27 00:31:00,
2013-01-26 16:41:00,63.0,47.0,29.84,NW,326,2.0,4.0,56,0.00,,,-99.99,,2013-01-27 00:41:00,
2013-01-26 16:52:00,63.0,46.0,29.85,NW,324,0.0,3.0,54,0.00,,,-99.99,,2013-01-27 00:52:00,
2013-01-26 17:01:00,63.0,47.0,29.85,NW,307,4.0,5.0,55,0.00,,,-99.99,,2013-01-27 01:01:00,
2013-01-26 17:11:00,63.0,47.0,29.85,NW,307,4.0,5.0,55,0.00,,,-99.99,,2013-01-27 01:11:00,
2013-01-26 17:22:00,62.0,48.0,29.85,NW,308,0.0,0.0,60,0.00,,,-99.99,,2013-01-27 01:22:00,
2013-01-26 17:31:00,61.0,46.0,29.85,NW,304,0.0,3.0,58,0.00,,,-99.99,,2013-01-27 01:31:00,
2013-01-26 17:41:00,61.0,46.0,29.85,NW,304,0.0,3.0,58,0.00,,,-99.99,,2013-01-27 01:41:00,
2013-01-26 17:52:00,59.0,46.0,29.86,NW,304,1.0,3.0,61,0.00,,,-99.99,,2013-01-27 01:52:00,
2013-01-26 18:01:00,58.0,46.0,29.86,WSW,251,2.0,3.0,64,0.00,,,-99.99,,2013-01-27 02:01:00,
2013-01-26 18:11:00,58.0,46.0,29.86,WSW,251,2.0,3.0,64,0.00,,,-99.99,,2013-01-27 02:11:00,
2013-01-26 18:21:00,56.0,45.0,29.85,WSW,248,3.0,8.0,67,0.00,,,-99.99,,2013-01-27 02:21:00,
2013-01-26 18:31:00,56.0,44.0,29.85,WSW,248,2.0,4.0,64,0.00,,,-99.99,,2013-01-27 02:31:00,
2013-01-26 18:41:00,56.0,44.0,29.85,WSW,248,2.0,4.0,64,0.00,,,-99.99,,2013-01-27 02:41:00,
2013-01-26 18:52:00,54.0,42.0,29.86,South,185,7.0,10.0,64,0.00,,,-99.99,,2013-01-27 02:52:00,
2013-01-26 19:01:00,54.0,42.0,29.86,SW,216,4.0,9.0,63,0.00,,,-99.99,,2013-01-27 03:01:00,
2013-01-26 19:11:00,54.0,42.0,29.86,SW,216,4.0,9.0,63,0.00,,,-99.99,,2013-01-27 03:11:00,
2013-01-26 19:21:00,54.0,40.0,29.86,South,171,6.0,20.0,60,0.00,,,-99.99,,2013-01-27 03:21:00,
2013-01-26 19:31:00,54.0,40.0,29.86,SSW,193,7.0,18.0,60,0.00,,,-99.99,,2013-01-27 03:31:00,
2013-01-26 19:41:00,54.0,40.0,29.86,SSW,193,7.0,18.0,60,0.00,,,-99.99,,2013-01-27 03:41:00,
2013-01-26 19:52:00,54.0,40.0,29.86,West,260,7.0,15.0,59,0.00,,,-99.99,,2013-01-27 03:52:00,
2013-01-26 20:01:00,54.0,40.0,29.86,SW,228,8.0,11.0,59,0.00,,,-99.99,,2013-01-27 04:01:00,
2013-01-26 20:11:00,54.0,40.0,29.86,SW,228,8.0,11.0,59,0.00,,,-99.99,,2013-01-27 04:11:00,
2013-01-26 20:21:00,55.0,38.0,29.87,WSW,237,9.0,27.0,52,0.00,,,-99.99,,2013-01-27 04:21:00,
2013-01-26 20:31:00,55.0,38.0,29.87,WSW,252,11.0,23.0,53,0.00,,,-99.99,,2013-01-27 04:31:00,
2013-01-26 20:41:00,55.0,38.0,29.87,WSW,252,11.0,23.0,53,0.00,,,-99.99,,2013-01-27 04:41:00,
2013-01-26 20:52:00,55.0,39.0,29.89,West,264,9.0,23.0,55,0.00,,,-99.99,,2013-01-27 04:52:00,
2013-01-26 21:02:00,55.0,39.0,29.89,WSW,240,10.0,26.0,55,0.00,,,-99.99,,2013-01-27 05:02:00,
2013-01-26 21:11:00,55.0,39.0,29.89,WSW,240,10.0,26.0,55,0.00,,,-99.99,,2013-01-27 05:11:00,
2013-01-26 21:22:00,54.0,38.0,29.87,SW,236,13.0,22.0,54,0.00,,,-99.99,,2013-01-27 05:22:00,
2013-01-26 21:31:00,54.0,38.0,29.87,WSW,248,14.0,31.0,54,0.00,,,-99.99,,2013-01-27 05:31:00,
2013-01-26 21:41:00,54.0,38.0,29.87,WSW,248,14.0,31.0,54,0.00,,,-99.99,,2013-01-27 05:41:00,
2013-01-26 21:52:00,54.0,38.0,29.89,SW,217,17.0,25.0,54,0.00,,,-99.99,,2013-01-27 05:52:00,
2013-01-26 22:01:00,54.0,38.0,29.89,SW,232,16.0,27.0,54,0.00,,,-99.99,,2013-01-27 06:01:00,
2013-01-26 22:11:00,54.0,38.0,29.89,SW,232,16.0,27.0,54,0.00,,,-99.99,,2013-01-27 06:11:00,
2013-01-26 22:21:00,54.0,37.0,29.88,SW,234,21.0,30.0,53,0.00,,,-99.99,,2013-01-27 06:21:00,
2013-01-26 22:31:00,54.0,37.0,29.88,SW,236,17.0,30.0,52,0.00,,,-99.99,,2013-01-27 06:31:00,
2013-01-26 22:41:00,54.0,37.0,29.88,SW,236,17.0,30.0,52,0.00,,,-99.99,,2013-01-27 06:41:00,
2013-01-26 22:52:00,53.0,37.0,29.89,SW,223,16.0,21.0,54,0.00,,,-99.99,,2013-01-27 06:52:00,
2013-01-26 23:01:00,53.0,36.0,29.89,WSW,247,12.0,21.0,53,0.00,,,-99.99,,2013-01-27 07:01:00,
2013-01-26 23:13:00,53.0,36.0,29.89,WSW,247,12.0,21.0,53,0.00,,,-99.99,,2013-01-27 07:13:00,
2013-01-26 23:21:00,53.0,36.0,29.90,SW,229,15.0,21.0,53,0.00,,,-99.99,,2013-01-27 07:21:00,
2013-01-26 23:31:00,53.0,37.0,29.90,South,183,15.0,26.0,54,0.00,,,-99.99,,2013-01-27 07:31:00,
2013-01-26 23:41:00,53.0,37.0,29.90,South,183,15.0,26.0,54,0.00,,,-99.99,,2013-01-27 07:41:00,
2013-01-26 23:52:00,52.0,36.0,29.89,SW,221,16.0,25.0,55,0.00,,,-99.99,,2013-01-27 07:52:00,